User: anonymous   Login
Location: Southern.California
(34.1460°N, 118.1120°W)
Time: 05:21:07
(UTC-07:00)
Language:

ISS - Orbit

View from above orbital plane
View from above orbital plane
View from above satellite
View from above satellite

Ground track
Ground track

The orbit data is extracted from the following two-line orbital elements,

1 25544U 98067A   20099.54939555  .00016717  00000-0  10270-3 0  9035
2 25544  51.6426 333.0803 0003581  93.6022 266.5538 15.48682025 21217
Epoch (UTC): 08 April 2020 13:11:07
Eccentricity: 0.0003581
inclination: 51.6426°
perigee height: 418 km
apogee height: 423 km
right ascension of ascending node: 333.0803°
argument of perigee: 93.6022°
revolutions per day: 15.48682025
mean anomaly at epoch: 266.5538°
orbit number at epoch: 2121

The dashed part of the orbit path shows where the satellite is in the earth's shadow,  

DLR